Terminal Aerodrome Forecast
Issued by NWS

Home | Current Version | Previous Version | Text Only | Print | Product List | Glossary On
Versions: 1 2 3 4 5 6 7 8 9 10 11 12 13 14 15 16 17 18 19 20 21 22
110
FTAK31 PAJN 191928 AAA
TAFAYA
TAF AMD
PAYA 191928Z 1919/2018 00000KT P6SM BKN015
     FM192300 VRB03KT P6SM SCT015
     FM200300 00000KT P6SM SKC
      AMD LTD TO CLD VIS AND WIND 2001/2009=

USA.gov is the U.S. government's official web portal to all federal, state and local government web resources and services.